Weather History for Camp Pendleton, CA

Change the Weather History Date:

Saturday, February 2, 2013

  Actual Average Record
Temperature  
Mean Temperature 17 °C -  
Max Temperature 27 °C 18 °C 27 °C (2000)
Min Temperature 6 °C 3 °C -4 °C (2002)
Degree Days  
Heating Degree Days 4    
Growing Degree Days 12 (Base 50)    
Moisture  
Dew Point 7 °C    
Average Humidity 62    
Maximum Humidity 83    
Minimum Humidity 22    
Precipitation  
Precipitation 0.00 mm - - ()
Sea Level Pressure  
Sea Level Pressure 1021 hPa    
Wind  
Wind Speed 2 km/h (South)    
Max Wind Speed 10 km/h    
Max Gust Speed -    
Visibility 16 kilometers    
Events      
Averages and records for this station are not official NWS values.
T = Trace of Precipitation, MM = Missing Value Source: NWS Daily Summary

Daily Weather History Graph

Daily Weather History Graph

Search for Another Location

Airport:

Trip Planner

Search our weather history database for the weather conditions in past years. The results will help you decide how hot, cold, wet, or windy it might be!

Date:

Astronomy

Feb. 02, 2013 Rise Set
Actual Time 6:44 AM PST 5:22 PM PST
Civil Twilight 6:18 AM PST 5:48 PM PST
Nautical Twilight 5:48 AM PST 6:18 PM PST
Astronomical Twilight 5:19 AM PST 6:47 PM PST
Moon No Moon Rise 10:21 AM PST (2/2)
Length of Visible Light 11h 30m
Length of Day
10h 38m
Waning Gibbous, 58% of the Moon is Illuminated
Feb 2
Waning Gibbous
Feb 3
Last Quarter
Feb 9
New
Feb 17
First Quarter
Feb 25
Full

Hourly Weather History & Observations

Time (PST) Temp. Dew Point Humidity Pressure Visibility Wind Dir Wind Speed Gust Speed Precip Events Conditions
12:54 AM 8.3 °C 5.0 °C 80% 1021.4 hPa 16.1 km Calm Calm - N/A   Clear
1:54 AM 10.0 °C 5.6 °C 74% 1021.1 hPa 16.1 km West 7.4 km/h / 2.1 m/s - N/A   Clear
2:54 AM 9.4 °C 5.6 °C 77% 1021.2 hPa 16.1 km NNE 5.6 km/h / 1.5 m/s - N/A   Clear
3:54 AM 7.8 °C 4.4 °C 79% 1021.3 hPa 16.1 km Calm Calm - N/A   Clear
4:54 AM 7.8 °C 5.0 °C 83% 1021.2 hPa 16.1 km Calm Calm - N/A   Clear
5:54 AM 6.1 °C 3.3 °C 82% 1021.4 hPa 16.1 km Calm Calm - N/A   Clear
6:54 AM 6.1 °C 2.8 °C 80% 1021.7 hPa 16.1 km Calm Calm - N/A   Clear
7:54 AM 8.9 °C 5.0 °C 77% 1021.9 hPa 16.1 km Calm Calm - N/A   Clear
8:54 AM 12.2 °C 6.1 °C 66% 1022.1 hPa 16.1 km Calm Calm - N/A   Clear
9:54 AM 16.1 °C 6.1 °C 52% 1022.0 hPa 16.1 km Calm Calm - N/A   Clear
10:54 AM 20.6 °C 7.2 °C 42% 1021.5 hPa 16.1 km South 5.6 km/h / 1.5 m/s - N/A   Clear
11:54 AM 24.4 °C 3.9 °C 26% 1020.6 hPa 16.1 km Calm Calm - N/A   Clear
12:54 PM 26.7 °C 3.3 °C 22% 1019.3 hPa 16.1 km Calm Calm - N/A   Clear
1:54 PM 23.9 °C 6.1 °C 32% 1018.8 hPa 16.1 km Calm Calm - N/A   Clear
2:54 PM 23.3 °C 8.3 °C 38% 1018.6 hPa 16.1 km Calm Calm - N/A   Scattered Clouds
3:54 PM 21.7 °C 9.4 °C 45% 1018.6 hPa 16.1 km South 5.6 km/h / 1.5 m/s - N/A   Overcast
4:54 PM 18.3 °C 10.0 °C 58% 1019.4 hPa 16.1 km South 9.3 km/h / 2.6 m/s - N/A   Overcast
5:54 PM 18.3 °C 9.4 °C 56% 1019.7 hPa 16.1 km Calm Calm - N/A   Overcast
6:54 PM 17.2 °C 10.6 °C 65% 1020.2 hPa 16.1 km ENE 7.4 km/h / 2.1 m/s - N/A   Overcast
7:54 PM 16.7 °C 10.0 °C 65% 1021.1 hPa 16.1 km SW 7.4 km/h / 2.1 m/s - 0.0 mm   Mostly Cloudy
8:54 PM 15.6 °C 9.4 °C 67% 1020.9 hPa 16.1 km Calm Calm - N/A   Overcast
9:54 PM 15.0 °C 10.0 °C 72% 1020.7 hPa 16.1 km Calm Calm - N/A   Overcast
10:54 PM 14.4 °C 10.0 °C 75% 1020.7 hPa 16.1 km Calm Calm - N/A   Overcast
11:54 PM 14.4 °C 10.0 °C 75% 1020.2 hPa 16.1 km Calm Calm - N/A   Overcast